Home > Weather > Pamplona > Past weeks

Flag for Spain Past Weather in Pamplona, Spain — Yesterday and Last 2 Weeks

Now
72 °F

Passing clouds.


Feels Like: 76 °F
Forecast: 57 / 75 °F
Wind: 1 mph from North

Location: Pamplona / Noain

Current Time: Jun 29, 2016 at 12:55:34 PM

Latest Report: Jun 29, 2016 at 12:30 PM


Visibility: N/A

Pressure: 30.04 "Hg

Humidity: 61%

Dew Point: 57 °F

Location of PamplonaLocation

Past Weather in Pamplona — Graph

°F

Pamplona Temperature Yesterday

Maximum temperature yesterday: 86 °F (at 3:30 PM)
Minimum temperature yesterday: 50 °F (at 6:00 AM)
Average temperature yesterday: 69 °F

High & Low Weather Summary for the Past Weeks

 TemperatureHumidityPressure
High95 °F (Jun 22, 5:30 PM)100% (Jun 16, 5:30 AM)30.42 "Hg (Jun 16, 5:30 AM)
Low48 °F (Jun 16, 5:30 AM)16% (Jun 23, 5:00 PM)29.56 "Hg (Jun 15, 5:00 PM)
Average65 °F64%30.10 "Hg
* Reported Jun 14 11:00 AM — Jun 29 11:30 AM, Pamplona, Weather by CustomWeather, © 2016

Note: Actual official high and low records may vary slightly from our data, if they occured in-between our weather recording intervals... More about our weather records

Advertising

Pamplona Weather History for the Previous 24 Hours

Scroll right to see more
 ConditionsComfort  
Time TempWeatherWind HumidityBarometerVisibility
11:30 AM
Wed, Jun 29
68 °FPassing clouds.2 mph64%30.04 "HgN/A
11:00 AM66 °FPassing clouds.3 mph68%30.04 "HgN/A
10:30 AM64 °FScattered clouds.3 mph68%30.07 "HgN/A
10:00 AM64 °FScattered clouds.5 mph68%30.07 "HgN/A
9:30 AM63 °FScattered clouds.3 mph77%30.07 "HgN/A
9:00 AM63 °FPartly sunny.6 mph73%30.07 "HgN/A
8:30 AM61 °FPartly sunny.5 mph77%30.07 "HgN/A
8:00 AM61 °FPartly sunny.5 mph77%30.07 "HgN/A
7:30 AM59 °FPassing clouds.6 mph82%30.07 "HgN/A
7:00 AM59 °FPassing clouds.7 mph82%30.09 "HgN/A
6:30 AM59 °FPassing clouds.7 mph82%30.09 "HgN/A
6:00 AM59 °FPassing clouds.8 mph82%30.09 "HgN/A
5:30 AM59 °FPassing clouds.7 mph82%30.09 "HgN/A
12:00 AM61 °FPassing clouds.12 mph83%30.12 "HgN/A
11:30 PM
Tue, Jun 28
61 °FPassing clouds.12 mph88%30.09 "HgN/A
11:00 PM63 °FPassing clouds.12 mph83%30.12 "HgN/A
10:00 PM63 °FPartly sunny.15 mph83%30.12 "HgN/A
9:30 PM63 °FPassing clouds.18 mph83%30.12 "HgN/A
9:00 PM64 °FPassing clouds.18 mph83%30.09 "HgN/A
8:30 PM68 °FPassing clouds.17 mph73%30.07 "HgN/A
8:00 PM70 °FPassing clouds.18 mph69%30.07 "HgN/A
7:30 PM73 °FPassing clouds.18 mph65%30.07 "HgN/A
7:00 PM77 °FSunny.20 mph57%30.04 "Hg10 mi
6:30 PM79 °FSunny.17 mph54%30.04 "Hg10 mi
6:00 PM81 °FPassing clouds.17 mph51%30.04 "HgN/A
5:30 PM82 °FPassing clouds.17 mph48%30.04 "HgN/A
5:00 PM84 °FPassing clouds.13 mph45%30.04 "HgN/A
4:30 PM86 °FSunny.7 mph33%30.04 "Hg10 mi
4:00 PM86 °FPassing clouds.3 mph27%30.04 "HgN/A
3:30 PM86 °FPassing clouds.5 mph24%30.04 "HgN/A
3:00 PM84 °FSunny.1 mph31%30.07 "Hg10 mi
2:30 PM84 °FSunny.2 mph35%30.07 "Hg10 mi
2:00 PM82 °FSunny.3 mph37%30.09 "Hg10 mi
1:30 PM81 °FSunny.2 mph45%30.09 "Hg10 mi
1:00 PM77 °FSunny.1 mph47%30.09 "Hg10 mi
12:30 PM75 °FSunny.2 mph50%30.12 "Hg10 mi
12:00 PM73 °FSunny.1 mph53%30.12 "Hg10 mi
Weather by CustomWeather, © 2016

See weather overviewHow to use our weather pages